Regional Weather Roundup
Issued by NWS

Home | Current Version | Previous Version | Graphics & Text | Print | Product List | Glossary On
Versions: 1 2 3 4 5 6 7 8 9 10 11 12 13 14 15 16 17 18 19 20 21 22 23 24 25 26 27 28 29 30 31 32 33 34 35 36 37 38 39 40 41 42 43 44 45 46 47 48 49 50
279
ASUS44 KJAN 200903
RWRMS

MISSISSIPPI HOURLY WEATHER ROUNDUP
NATIONAL WEATHER SERVICE JACKSON MS
300 AM CST THU NOV 20 2014

NOTE: "FAIR: INDICATES FEW OR NO CLOUDS BELOW 12,000 FEET WITH NO
SIGNIFICANT WEATHER AND/OR OBSTRUCTIONS TO VISIBILITY.

MSZ001>002-007>008-010>013-018>021-025>028-034>036-201000-
NORTHWEST MISSISSIPPI

CITY           SKY/WX    TMP DP  RH WIND       PRES   REMARKS
CLARKSDALE     FAIR      39  37  93 S7        30.22S WCI  34
CLEVELAND      FAIR      39  37  93 S6        30.23R WCI  35
GREENWOOD      CLOUDY    45  30  55 SW6       30.23S
GREENVILLE     PTCLDY    40  34  79 CALM      30.22S
GRENADA        FAIR      43  30  61 CALM      30.23S
OLIVE BRANCH   CLEAR     34  34 100 NW5       30.21R WCI  30
OXFORD         FAIR      41  34  75 SW6       30.21S
TUNICA         SUNNY     36  34  93 NW3       30.23R
$$

MSZ003>006-009-014>017-022>024-029>033-037>039-201000-
NORTHEAST MISSISSIPPI

CITY           SKY/WX    TMP DP  RH WIND       PRES   REMARKS
COLUMBUS AFB   CLOUDY    39  29  66 S2        30.24R
CORINTH        FAIR      34  28  80 CALM      30.19R
GOLDN TRIANGLE CLOUDY    41  28  60 S6        30.23R
STARKVILLE       N/A    N/A N/A N/A MISG        N/A
TUPELO         PTCLDY    43  26  51 W7        30.21R
$$

MSZ040-058-201000-
CENTRAL MISSISSIPPI

CITY           SKY/WX    TMP DP  RH WIND       PRES   REMARKS
JACKSON INTL   PTCLDY    43  37  79 S6        30.25S
JACKSON HAWKNS MOCLDY    41  35  79 S5        30.25S
MERIDIAN KEY   MOCLDY    37  34  89 CALM      30.27S
MERIDIAN NAS   MOCLDY    43  35  73 SW5       30.27S
RAYMOND        FAIR      43  39  87 S5        30.25S
VICKSBURG      CLEAR     38  32  79 SE3       30.24F
$$

MSZ059>079-201000-
SOUTH MISSISSIPPI

CITY           SKY/WX    TMP DP  RH WIND       PRES   REMARKS
BROOKHAVEN     FAIR      37  37 100 CALM      30.27S
COLUMBIA         N/A     34  34 100 MISG        N/A
HATTIESBURG    CLEAR     35  33  92 CALM      30.28F
MCCOMB         MOCLDY    38  36  92 CALM      30.26S
NATCHEZ        PTCLDY    46  39  76 S7        30.25S
PINE BELT      CLEAR     34  28  80 CALM      30.27S
$$

MSZ080>082-201000-
COASTAL MISSISSIPPI

CITY           SKY/WX    TMP DP  RH WIND       PRES   REMARKS
BILOXI         CLEAR     39  38  97 CALM      30.27F
PASCAGOULA     CLEAR     30  28  92 CALM      30.28F
GULFPORT       CLEAR     36  34  92 CALM      30.28S
$$



USA.gov is the U.S. government's official web portal to all federal, state and local government web resources and services.